Wind_Speed
42 45 46 45 46 47 46 41 45 50 55 60 68 70 71 72 71 71 72 73 75 75 74 74 74 75 77 79 81 83 86 89 90 91 89 88 89 90 91 92 93 93 93
44 46 47 47 48 49 50 55 56 57 59 62 66 69 68 69 72 74 75 75 75 75 76 78 79 82 85 89 90 91 93 96 98 98 98 96 99 102 103 104 105 105 106
42 44 48 49 52 51 52 55 55 52 53 56 60 63 68 70 72 73 75 78 79 79 82 86 89 91 93 97 100 102 105 107 108 111 111 110 109 110 115 120 120 118 116
37 42 46 49 48 46 45 49 50 50 52 57 60 65 70 72 73 75 77 79 81 85 89 93 96 101 104 108 111 114 119 121 123 124 127 129 129 128 123 125 127 126 121
44 46 46 45 44 44 49 48 49 53 58 62 66 68 69 72 75 78 80 83 87 91 96 103 106 109 113 116 121 124 126 128 130 130 128 126 125 124 120 113 116 119 124
39 40 42 38 36 43 50 51 53 58 61 63 66 68 71 73 75 78 83 89 96 100 104 107 113 117 120 124 127 129 130 130 128 127 124 121 119 118 116 108 99 101 106
35 39 42 41 45 49 52 54 57 59 62 65 68 71 73 77 81 85 89 92 98 102 108 114 116 122 127 130 130 130 127 126 125 124 122 117 112 107 102 97 91 87 90
36 41 45 47 49 51 54 56 57 60 64 67 70 72 74 79 83 88 92 98 103 108 115 121 126 131 131 126 125 122 122 119 118 115 110 103 98 97 94 89 84 79 77
39 42 45 47 49 52 56 60 62 64 66 68 71 74 78 81 87 93 98 105 111 116 122 126 129 127 129 123 120 119 116 112 105 99 93 88 85 83 82 79 75 70 67
41 44 46 49 51 54 57 60 63 64 66 68 71 77 82 87 93 99 106 111 117 122 125 125 125 123 122 122 118 111 104 99 93 88 84 79 74 73 72 70 68 66 62
44 46 47 50 53 55 57 60 62 64 67 70 75 80 86 93 100 106 112 118 120 124 127 125 122 120 117 117 110 103 96 90 86 80 76 73 70 68 67 65 65 64 61
50 51 51 52 54 57 60 61 63 65 70 75 81 88 95 101 108 114 121 123 127 126 123 120 120 117 113 107 102 96 90 83 78 75 73 71 68 65 62 60 60 59 59
55 56 55 55 56 58 60 61 64 71 77 83 91 97 103 108 113 121 127 125 124 122 119 119 114 110 104 98 93 87 81 78 74 70 67 65 65 63 61 57 54 53 55
56 58 57 56 57 59 61 66 73 79 87 93 99 104 108 113 118 127 128 124 121 119 117 111 106 101 96 91 85 81 77 73 70 67 64 62 61 59 56 54 53 51 51
57 57 58 58 59 63 69 75 81 88 94 100 104 108 114 120 126 132 129 126 121 117 112 106 98 93 88 82 78 75 72 69 66 63 61 59 57 53 51 52 51 50 49
57 58 61 63 65 70 76 82 87 94 101 106 110 116 122 127 134 132 127 125 118 112 103 96 90 84 79 75 72 70 67 64 62 59 57 56 52 49 47 44 43 45 47
60 60 63 66 71 77 82 87 93 101 106 111 116 122 126 133 134 128 126 121 114 103 94 90 83 78 73 70 69 66 63 60 56 54 54 53 49 47 45 41 38 39 41
63 65 67 72 77 81 85 93 98 105 110 116 120 127 131 134 129 125 121 115 105 95 88 82 77 72 68 66 64 61 57 54 53 52 52 52 48 45 42 39 37 36 36
70 71 74 79 82 86 91 98 105 110 116 121 127 133 132 127 126 124 117 105 96 89 83 77 72 68 66 62 59 58 56 53 50 47 45 44 41 38 36 35 34 33 32
72 76 80 84 87 92 98 104 111 117 122 127 133 132 128 127 125 118 108 98 90 83 77 72 68 65 61 59 58 56 54 51 47 43 42 40 38 35 33 31 30 28 27
76 82 85 89 93 99 105 111 117 123 127 134 133 127 126 127 120 110 100 93 85 78 73 68 64 61 59 57 55 52 49 48 46 44 41 37 34 31 28 27 24 23 22
84 88 91 95 101 106 111 117 124 129 133 135 129 127 127 122 113 103 96 87 79 73 69 65 61 59 57 55 51 49 48 47 45 41 38 34 31 27 25 23 20 18 18
89 92 96 101 107 112 117 123 130 133 136 131 127 127 122 116 105 97 88 81 75 70 66 62 59 56 54 52 48 46 43 43 42 39 35 32 29 25 23 21 18 16 16
94 97 102 108 112 117 124 132 132 134 128 127 127 123 118 108 99 90 81 75 69 66 62 59 57 54 52 50 47 44 41 38 37 36 33 29 26 23 21 19 17 16 16
99 104 109 114 117 123 132 134 131 127 126 126 122 118 109 100 91 82 75 70 66 63 60 58 56 53 51 48 45 42 39 37 35 34 31 27 25 22 20 18 17 15 15
105 110 115 119 124 131 134 128 125 123 122 119 116 109 99 91 83 76 70 66 63 60 57 57 54 52 48 45 42 39 37 36 35 33 29 26 24 22 20 18 17 15 15
Wind_Direction
268 266 269 267 268 267 274 267 259 262 266 274 279 281 283 285 287 290 291 293 293 292 291 290 292 292 292 291 289 287 286 285 284 283 281 279 277 276 276 275 273 272 272
265 264 263 264 268 270 269 269 273 271 273 276 277 278 281 284 289 291 293 292 290 290 292 294 293 293 293 290 289 288 288 287 285 284 282 280 280 279 278 276 275 274 271
271 272 274 275 275 276 276 277 276 276 279 278 279 283 286 288 291 291 291 291 292 293 292 291 290 289 290 291 292 292 291 291 291 290 288 286 283 280 279 279 279 277 272
278 274 276 279 280 281 283 277 276 280 282 283 284 285 286 288 289 291 293 293 292 292 292 291 291 292 294 296 297 298 299 299 298 296 294 292 289 284 281 280 279 278 274
280 283 284 285 287 289 286 286 286 286 285 285 286 287 289 292 294 295 296 296 295 295 297 297 297 300 303 303 301 300 298 296 294 292 289 287 285 285 282 276 271 268 269
298 295 293 298 294 286 287 292 289 287 288 289 291 292 294 296 297 296 298 301 303 302 302 302 302 302 301 300 299 297 297 296 294 293 292 290 287 285 283 282 277 274 270
301 301 301 298 294 295 297 294 293 294 294 294 295 297 298 299 300 302 302 300 299 301 302 302 300 299 298 299 298 299 298 296 295 294 293 293 290 288 285 281 277 271 267
307 305 302 301 298 296 296 298 299 300 300 301 302 302 301 302 302 300 300 300 299 298 299 299 297 297 299 300 299 298 297 296 295 293 292 291 289 287 285 282 278 272 264
299 297 298 299 299 300 300 301 301 300 301 303 304 303 300 298 298 298 298 297 298 297 298 300 301 302 303 303 302 300 299 297 295 295 294 291 288 286 284 282 280 275 269
300 303 299 299 299 299 299 300 300 300 300 300 298 299 299 297 298 298 298 299 301 303 305 306 306 306 306 304 303 304 302 300 300 297 294 292 290 287 286 284 281 277 271
299 299 301 301 299 300 300 300 300 299 298 298 298 299 300 301 301 302 306 308 307 307 309 309 308 308 307 306 307 305 303 303 300 299 297 296 293 290 286 283 280 277 272
302 302 300 300 301 302 301 301 301 301 300 300 303 302 303 307 310 313 313 313 312 311 311 311 311 309 308 307 307 306 304 303 301 300 299 297 294 291 288 285 281 277 274
304 304 304 304 304 305 305 306 305 306 307 306 307 310 311 313 315 316 316 313 313 313 314 313 311 310 308 307 306 305 304 303 302 301 299 297 295 292 289 285 280 277 274
308 309 308 309 308 307 306 307 307 309 310 311 312 313 314 315 315 316 316 316 316 316 315 314 312 310 309 308 307 306 305 305 305 302 300 297 293 292 291 288 285 280 273
309 308 308 308 307 307 308 308 310 311 312 312 313 315 316 317 317 319 319 318 317 318 318 315 312 311 309 309 308 307 306 306 305 303 300 297 296 295 292 287 283 279 274
310 310 309 310 310 309 309 311 312 313 313 314 316 316 316 318 319 320 318 318 319 319 317 313 312 311 311 310 309 308 308 307 305 303 302 298 298 295 289 285 280 276 273
310 309 308 308 309 310 313 314 314 315 316 317 317 317 318 318 320 319 319 320 320 320 317 314 314 313 313 312 310 310 309 307 307 305 303 301 301 299 294 290 284 277 273
310 309 309 311 311 312 314 315 316 317 317 318 317 318 319 321 319 319 320 320 320 319 317 315 315 315 314 313 312 311 311 310 307 306 304 302 300 297 296 293 289 283 277
312 312 313 313 314 315 316 316 317 317 318 318 318 319 321 320 319 320 321 322 320 319 318 317 317 316 315 314 312 312 311 309 308 307 305 303 302 300 296 292 289 283 278
312 313 313 314 315 315 315 316 317 319 319 318 320 321 321 319 321 320 322 322 320 319 318 318 317 316 316 314 314 313 313 313 312 312 309 307 304 300 295 293 289 284 278
312 313 314 314 314 316 317 317 318 318 318 319 321 320 320 321 321 322 322 321 320 320 319 319 318 317 317 316 316 315 315 315 314 314 312 309 305 299 296 295 292 287 280
313 314 313 314 316 317 317 318 318 319 320 321 320 320 320 321 322 323 322 321 321 320 319 319 319 319 318 317 317 317 317 315 314 315 314 312 309 303 299 297 293 289 280
311 311 313 315 315 316 317 317 319 319 320 319 319 319 320 321 322 322 321 321 320 320 320 320 320 320 319 318 318 318 317 316 316 316 314 312 310 306 302 299 293 289 280
312 312 312 313 315 316 316 319 318 319 318 318 319 320 320 321 321 321 320 321 320 320 320 321 321 321 319 318 318 318 318 318 316 316 315 312 310 308 302 299 292 287 281
311 312 312 314 314 316 318 318 319 318 318 318 318 319 319 320 320 320 321 320 320 321 322 321 322 320 319 319 320 321 321 321 319 317 317 314 311 309 302 299 292 288 280
312 312 313 313 315 317 317 318 317 317 317 317 317 317 319 319 320 320 321 321 321 322 322 322 322 322 322 323 323 322 321 321 319 317 317 315 311 306 301 298 291 284 278
Height
10663 10660 10657 10653 10653 10654 10655 10656 10650 10643 10635 10630 10623 10615 10609 10602 10597 10592 10587 10580 10574 10567 10561 10555 10550 10545 10542 10536 10530 10524 10519 10511 10509 10505 10502 10496 10488 10480 10477 10479 10477 10478 10480
10656 10652 10650 10648 10647 10647 10643 10637 10639 10635 10631 10624 10616 10607 10599 10592 10585 10578 10572 10564 10556 10550 10543 10536 10530 10525 10519 10511 10505 10500 10494 10486 10479 10476 10473 10473 10464 10452 10446 10444 10446 10448 10446
10649 10646 10641 10640 10637 10636 10633 10628 10625 10623 10621 10612 10603 10595 10587 10579 10572 10565 10555 10546 10540 10533 10525 10516 10508 10501 10496 10487 10480 10472 10463 10456 10449 10437 10434 10433 10432 10428 10416 10402 10399 10401 10402
10641 10635 10632 10629 10628 10626 10623 10618 10615 10612 10604 10597 10590 10581 10574 10566 10556 10548 10540 10531 10523 10514 10503 10492 10484 10475 10469 10457 10444 10433 10419 10407 10398 10389 10378 10371 10367 10368 10375 10366 10353 10345 10344
10629 10626 10623 10622 10619 10615 10608 10606 10603 10597 10589 10582 10575 10567 10558 10550 10541 10532 10520 10509 10500 10489 10477 10464 10454 10442 10427 10417 10408 10395 10384 10373 10360 10350 10342 10331 10321 10309 10304 10315 10316 10309 10296
10618 10613 10611 10612 10608 10600 10595 10592 10587 10581 10574 10567 10560 10551 10543 10534 10523 10512 10500 10487 10471 10459 10449 10438 10425 10414 10404 10392 10379 10364 10350 10332 10314 10300 10289 10280 10274 10265 10254 10252 10263 10257 10256
10613 10606 10601 10600 10593 10587 10581 10574 10570 10566 10559 10550 10542 10535 10526 10513 10501 10490 10480 10469 10456 10446 10432 10418 10404 10389 10374 10362 10344 10327 10311 10294 10274 10256 10244 10233 10223 10216 10212 10209 10212 10219 10214
10604 10597 10591 10587 10582 10575 10567 10561 10555 10547 10539 10533 10526 10517 10507 10496 10486 10476 10466 10454 10440 10426 10411 10394 10377 10357 10339 10330 10308 10290 10273 10257 10238 10222 10211 10202 10189 10179 10172 10169 10169 10175 10177
10601 10594 10587 10581 10573 10565 10556 10549 10542 10535 10527 10519 10510 10501 10494 10486 10476 10463 10447 10432 10417 10402 10385 10366 10343 10324 10293 10281 10267 10250 10232 10215 10199 10187 10176 10167 10159 10150 10143 10138 10136 10139 10143
10593 10586 10580 10572 10565 10557 10549 10541 10533 10526 10518 10511 10502 10492 10483 10471 10458 10443 10426 10410 10389 10367 10348 10328 10304 10284 10263 10239 10225 10209 10191 10178 10167 10156 10146 10138 10132 10123 10116 10113 10109 10109 10113
10584 10578 10570 10562 10554 10546 10538 10531 10524 10516 10507 10497 10488 10477 10463 10449 10435 10417 10398 10377 10356 10335 10312 10290 10267 10249 10228 10206 10188 10174 10161 10151 10138 10128 10119 10111 10105 10097 10091 10088 10085 10082 10084
10571 10564 10557 10549 10541 10532 10524 10516 10507 10499 10489 10479 10468 10455 10440 10423 10401 10382 10363 10342 10322 10303 10280 10260 10235 10213 10195 10177 10160 10146 10135 10124 10114 10104 10095 10086 10078 10072 10068 10065 10061 10059 10057
10558 10550 10541 10534 10526 10516 10508 10500 10492 10480 10469 10458 10444 10428 10411 10393 10374 10353 10334 10315 10291 10270 10251 10228 10206 10186 10166 10151 10136 10124 10112 10100 10091 10083 10074 10065 10056 10050 10046 10044 10042 10039 10036
10541 10533 10526 10518 10510 10502 10493 10484 10473 10462 10448 10434 10420 10405 10387 10370 10350 10329 10307 10284 10264 10244 10222 10198 10177 10158 10142 10126 10114 10100 10088 10078 10070 10061 10053 10045 10038 10033 10028 10023 10020 10019 10018
10529 10522 10513 10505 10495 10486 10477 10466 10454 10442 10428 10413 10399 10380 10361 10342 10321 10298 10273 10253 10233 10213 10191 10169 10150 10134 10118 10105 10092 10080 10069 10060 10050 10042 10034 10026 10020 10016 10011 10006 10002 10000 9999
10515 10507 10498 10489 10481 10471 10460 10449 10437 10422 10407 10390 10371 10352 10333 10312 10290 10269 10247 10226 10205 10187 10166 10144 10129 10113 10099 10086 10073 10061 10051 10042 10033 10024 10015 10008 10004 10000 9995 9992 9988 9984 9981
10503 10495 10486 10478 10468 10457 10445 10431 10417 10401 10382 10364 10346 10328 10308 10285 10262 10240 10219 10197 10179 10161 10143 10122 10107 10094 10081 10068 10055 10044 10035 10026 10017 10009 10000 9992 9989 9984 9978 9976 9973 9969 9966
10490 10481 10472 10462 10452 10440 10427 10412 10395 10377 10360 10342 10324 10303 10283 10258 10234 10215 10196 10176 10155 10139 10122 10105 10090 10076 10064 10052 10039 10028 10020 10012 10004 9996 9987 9979 9974 9970 9964 9960 9958 9955 9952
10473 10464 10455 10444 10432 10420 10406 10390 10374 10358 10340 10319 10299 10279 10258 10235 10211 10189 10171 10154 10136 10118 10101 10087 10074 10061 10049 10038 10027 10016 10007 10000 9991 9983 9975 9968 9962 9958 9953 9949 9946 9943 9941
10458 10448 10438 10426 10414 10402 10388 10371 10354 10335 10316 10296 10277 10254 10231 10210 10190 10169 10150 10132 10117 10101 10085 10072 10059 10047 10035 10024 10014 10004 9993 9984 9976 9971 9964 9957 9952 9947 9943 9939 9936 9933 9931
10442 10432 10420 10407 10394 10380 10365 10348 10330 10313 10292 10270 10250 10229 10208 10186 10166 10147 10130 10115 10098 10084 10070 10058 10046 10033 10022 10012 10002 9992 9982 9973 9965 9958 9952 9947 9942 9937 9933 9929 9927 9924 9923
10424 10413 10400 10386 10373 10360 10345 10328 10309 10288 10265 10244 10222 10203 10183 10163 10144 10127 10111 10096 10082 10068 10055 10044 10032 10021 10011 10000 9991 9981 9971 9962 9954 9948 9942 9937 9932 9928 9924 9922 9920 9918 9916
10408 10396 10381 10367 10353 10338 10321 10306 10284 10261 10240 10218 10199 10180 10160 10140 10125 10109 10096 10080 10066 10053 10041 10030 10020 10010 9999 9989 9980 9972 9963 9953 9945 9939 9934 9929 9924 9920 9917 9915 9913 9912 9911
10389 10376 10363 10348 10332 10315 10297 10279 10259 10238 10216 10196 10174 10156 10139 10120 10107 10093 10079 10066 10053 10041 10028 10017 10008 9999 9988 9978 9970 9962 9954 9946 9938 9932 9926 9922 9917 9914 9911 9909 9907 9906 9905
10370 10356 10340 10327 10312 10295 10273 10253 10234 10213 10193 10171 10152 10135 10121 10105 10091 10078 10064 10052 10039 10027 10016 10005 9996 9987 9977 9967 9959 9950 9943 9936 9930 9924 9920 9915 9911 9908 9905 9903 9902 9901 9900
10349 10334 10319 10305 10289 10269 10247 10229 10209 10191 10172 10153 10134 10118 10105 10090 10076 10063 10050 10038 10026 10015 10004 9993 9984 9975 9966 9957 9949 9942 9935 9929 9923 9917 9913 9909 9905 9903 9900 9898 9897 9896 9895